Location: Unspecified
(0.0000°N, 0.0000°E)
Time: 11:14:09
(UTC+00:00)

OV3-3 - Pass Details

Date: 23 September 2017
Orbit: 340 x 2257 km, 81.4° (Epoch: 16 October)

Event Time Altitude Azimuth Distance (km) Brightness Sun altitude
Rises 05:08:07 0° 172° (S) 3,362 10.4 -11.1°
Reaches altitude 10° 05:11:09 10° 162° (SSE) 2,121 9.5 -10.3°
Maximum altitude 05:15:06 30° 101° (E) 948 8.4 -9.3°
Drops below altitude 10° 05:17:59 10° 37° (NE) 1,528 9.1 -8.6°
Sets 05:19:51 0° 25° (NNE) 2,268 9.8 -8.1°
